#timestamp,LO_Frequency,Hit,StdDev 
1561546815.1,286047002.7,N
1561546816.0,286047002.7,N
1561546835.8,286047001.5,N
1561546855.6,286047001.9,N
1561546875.5,286047004.1,N
1561546895.3,286047001.4,N
1561546915.1,286047004.3,N
1561546935.9,286047002.0,N
1561546955.7,286047000.5,N
1561546975.6,286047000.3,N
1561546995.4,286047000.3,N
1561547015.2,286047000.4,N
1561547035.1,286046998.1,N
1561547036.0,286046998.1,N
1561547055.8,286046998.5,N
1561547075.6,286046999.1,N
1561547095.5,286046998.8,N
1561547115.3,286046996.6,N
1561547135.2,286046996.8,N
1561547155.9,286046996.5,N
1561547175.7,286047001.2,N
1561547195.6,286047001.0,N
1561547215.4,286046999.1,N
1561547235.2,286046998.9,N
1561547255.1,286046999.0,N
1561547256.0,286046999.0,N
1561547275.8,286046998.2,N
1561547295.7,286047001.0,N
1561547315.5,286046998.1,N
1561547335.3,286046998.2,N
1561547355.2,286047001.2,N
1561547375.0,286046999.3,N
1561547375.9,286046999.3,N
1561547395.8,286047000.9,N
1561547415.6,286046998.8,N
1561547435.4,286047001.0,N
1561547455.3,286046999.4,N
1561547475.1,286046999.0,N
1561547495.8,286046998.8,N
1561547515.7,286046997.8,N
1561547535.5,286046996.3,N
1561547555.4,286046994.0,Y
1561547575.2,286046993.3,P
1561547595.0,286046991.8,N
1561547595.9,286046991.8,N
1561547615.8,286046992.6,N
1561547635.6,286046990.9,Y
1561547655.5,286046996.9,P
1561547675.3,286046997.1,N
1561547695.1,286046998.9,N
1561547715.9,286046999.3,N
1561547735.7,286046996.7,N
1561547755.5,286046999.0,N
1561547775.4,286047000.1,N
1561547795.2,286047002.5,N
1561547815.1,286047002.6,N
1561547816.0,286047002.6,N
1561547835.8,286047004.1,N
1561547855.6,286047001.6,N
1561547875.5,286047002.1,N
1561547895.3,286047004.0,N
1561547915.1,286047005.7,N
1561547935.9,286047004.8,N
1561547955.7,286047005.7,N
1561547975.6,286047004.9,N
1561547995.4,286047005.5,N
1561548015.2,286047006.0,N
1561548035.1,286047005.6,N
1561548036.0,286047005.6,N
1561548055.8,286047005.4,N
1561548075.6,286047004.6,N
1561548095.5,286047004.3,N
1561548115.3,286047000.2,N
1561548135.2,286047000.0,N
1561548155.9,286047000.9,N
1561548175.7,286047002.3,N
1561548195.6,286046999.8,N
1561548215.4,286046999.4,N
1561548235.3,286046997.8,N
1561548255.1,286046993.6,N
1561548256.0,286046993.6,N
1561548275.8,286046994.1,N
1561548295.7,286046991.9,N
1561548315.5,286046992.5,N
1561548335.3,286046990.3,N
1561548355.2,286046991.3,N
1561548375.0,286046988.8,N
1561548375.9,286046988.8,N
1561548395.8,286046989.1,N
1561548415.6,286046989.5,N
1561548435.4,286046987.1,N
1561548455.3,286046987.9,N
1561548475.1,286046987.4,N
1561548495.8,286046985.9,N
1561548515.7,286046983.8,N
1561548535.5,286046984.4,N
1561548555.4,286046983.7,N
1561548575.2,286046984.1,N
1561548595.0,286046983.9,N
1561548595.9,286046983.9,N
1561548615.8,286046986.7,N
1561548635.6,286046986.2,N
1561548655.4,286046984.8,N
1561548675.3,286046984.0,N
1561548695.1,286046985.1,N
1561548715.9,286046982.6,Y
1561548735.7,286046994.3,P
1561548755.5,286046994.5,N
1561548775.4,286046995.9,N
1561548795.2,286046993.5,N
1561548815.0,286046996.2,N
1561548815.9,286046996.2,N
1561548835.8,286046993.4,N
1561548855.6,286046994.5,N
1561548875.5,286046994.6,N
1561548895.3,286046992.8,Y
1561548915.1,286046997.8,P
1561548935.9,286046996.8,N
1561548955.7,286046995.3,P
1561548975.5,286046995.6,Y
1561548995.4,286047001.1,P
1561549015.2,286047001.1,N
1561549035.1,286046998.4,N
1561549036.0,286046998.4,N
1561549055.8,286046998.9,N
1561549075.6,286046999.5,N
1561549095.5,286046999.4,N
1561549115.3,286046999.6,N
1561549135.1,286046999.3,N
1561549155.9,286046997.7,N
1561549175.7,286046997.2,N
1561549195.6,286046996.5,N
1561549215.4,286046999.6,N
1561549235.2,286046997.9,N
1561549255.1,286046997.3,N
1561549256.0,286046997.3,N
1561549275.8,286046997.6,N
1561549295.6,286046996.5,N
1561549315.5,286046998.2,N
1561549335.3,286047001.4,N
1561549355.2,286047003.3,N
1561549375.9,286047003.4,N
1561549395.7,286047003.6,N
1561549415.6,286047007.4,Y
1561549435.4,286047008.7,P
1561549455.2,286047007.7,N
1561549475.1,286047009.4,N
1561549476.0,286047009.4,N
1561549495.8,286047010.5,N
1561549515.7,286047008.2,N
1561549535.5,286047010.0,N
1561549555.3,286047010.0,N
1561549575.2,286047012.0,Y
1561549595.0,286047003.7,P
1561549595.9,286047003.7,N
1561549615.8,286047004.1,N
1561549635.6,286047006.0,Y
1561549655.4,286046998.3,P
1561549675.3,286046998.3,N
1561549695.1,286047000.1,N
1561549715.8,286047002.7,N
1561549735.7,286047001.7,N
1561549755.5,286047002.8,N
1561549775.4,286047002.8,N
1561549795.2,286047000.5,N
1561549815.0,286047002.7,N
1561549815.9,286047002.7,N
1561549835.8,286047000.0,N
1561549855.6,286046999.9,N
1561549875.4,286046999.7,N
1561549895.3,286047000.1,N
1561549915.1,286047004.3,N
1561549935.9,286047002.4,N
1561549955.7,286047000.3,N
1561549975.5,286047001.6,N
1561549995.4,286047002.2,N
1561550015.2,286047002.8,N
1561550035.0,286047002.2,N
1561550035.9,286047002.2,N
1561550055.8,286047002.4,N
1561550075.6,286047001.5,N
1561550095.4,286047002.0,N
1561550115.3,286047004.3,N
1561550135.1,286047005.7,Y
1561550155.9,286047002.2,P
1561550175.7,286047004.2,P
1561550195.5,286047003.2,N
1561550215.4,286047006.0,Y
1561550235.2,286047002.8,P
1561550255.1,286047000.5,P
1561550256.0,286047000.5,N
1561550275.8,286047000.3,N
1561550295.6,286047000.0,N
1561550315.5,286047000.8,N
1561550335.3,286046998.3,N
1561550355.1,286047000.2,N
1561550375.9,286047001.9,N
1561550395.7,286047002.8,N
